Content
SEND FEEDBACK

Daily
Averages
Monthly
Summary
United States of America

HARMONY, MINNESOTA


Home > North America > United States > Minnesota
Elevation: 1340 feet     Latitude: 43 34N     Longitude: 092 01W

WEATHER
 
SELECT A DAY
Number of Records: 291,991;   Date Range: 6/13/02 - 7/7/14
 
SHARE

PRINT THIS DATA

[ ← Previous Day ]
WEATHER ALMANAC - JANUARY 31, 2013
[ Next Day → ]
[ °C ]   °F
Weather ElementAverageHighLow
Temperature0.9 °F10.4 °F (12:29 am)-7.6 °F (11:49 pm)
Dewpoint-4.7 °F6.6 °F (12:29 am)-13.5 °F (11:49 pm)
Humidity77.5 %85 % (12:29 am)72 % (11:49 am)
Barometer29.94 in30.19 in (11:30 pm)29.69 in (12:29 am)
Wind Speed19.4 mph24.2 mph (2:09 pm)
Wind Gust29.9 mph (10:30 am)
Weather ElementAverage
Visibility5.8 mi
Wind DirectionWNW (300.8 °)

Weather ElementTotal
Precipitation---
Heating Degree Days63.6 (Base 65)
Averaged from 71 records on January 31, 2013
WEATHER CONDITIONS BREAKOUT
WIND DIRECTION BREAKOUT
WEATHER BY HOUR - JANUARY 31, 2013
[ °C ]   °F
Local TimeTemperatureDewpointHumidityBarometerVisibilityWind DirectionWind SpeedGust SpeedPrecipitationEventsConditions
12:29 AM10.4 °F6.6 °F85 %29.69 in3.0 miWNW (290°)19.6 mphSnowLight Snow
12:50 AM9.5 °F5.5 °F84 %29.70 in5.0 miWNW (290°)21.9 mph25.3 mphOvercast
1:10 AM9.3 °F5.0 °F83 %29.71 in7.0 miWNW (300°)18.4 mphOvercast
1:29 AM9.0 °F4.6 °F83 %29.71 in5.0 miWNW (300°)19.6 mph25.3 mphHaze
1:50 AM8.4 °F4.1 °F83 %29.72 in7.0 miWNW (300°)18.4 mph24.2 mphOvercast
2:09 AM8.1 °F3.7 °F83 %29.73 in7.0 miWNW (300°)19.6 mph24.2 mphOvercast
2:30 AM7.7 °F3.2 °F82 %29.74 in5.0 miWNW (300°)18.4 mphOvercast
2:49 AM6.6 °F2.5 °F83 %29.74 in4.0 miWNW (290°)15.0 mph20.7 mphHaze
3:10 AM5.9 °F1.4 °F82 %29.74 in7.0 miWNW (300°)16.1 mphOvercast
3:29 AM5.7 °F1.4 °F82 %29.74 in7.0 miWNW (290°)13.8 mph20.7 mphOvercast
3:50 AM5.4 °F1.0 °F82 %29.74 in7.0 miWNW (300°)19.6 mphOvercast
4:09 AM5.0 °F0.5 °F82 %29.74 in7.0 miWNW (300°)17.3 mphOvercast
4:30 AM4.8 °F0.3 °F82 %29.76 in7.0 miWNW (290°)16.1 mph24.2 mphOvercast
4:50 AM4.1 °F-0.4 °F82 %29.76 in5.0 miNW (310°)19.6 mph26.5 mphOvercast
5:09 AM4.1 °F-0.4 °F82 %29.76 in5.0 miWNW (290°)21.9 mphHaze
5:29 AM3.6 °F-1.3 °F80 %29.77 in5.0 miWNW (300°)17.3 mphOvercast
5:49 AM3.0 °F-1.8 °F80 %29.78 in4.0 miWNW (300°)18.4 mphHaze
6:09 AM2.3 °F-2.4 °F81 %29.79 in5.0 miWNW (290°)20.7 mphHaze
6:30 AM1.9 °F-3.1 °F79 %29.80 in7.0 miWNW (290°)17.3 mph25.3 mphOvercast
6:50 AM1.8 °F-3.1 °F80 %29.81 in5.0 miWNW (290°)18.4 mph25.3 mphHaze
7:09 AM1.4 °F-3.8 °F79 %29.82 in5.0 miWNW (290°)21.9 mph26.5 mphHaze
7:30 AM1.0 °F-4.0 °F79 %29.82 in4.0 miWNW (300°)19.6 mphHaze
7:49 AM0.9 °F-4.0 °F80 %29.83 in4.0 miWNW (300°)16.1 mphHaze
8:10 AM0.5 °F-4.5 °F79 %29.84 in5.0 miWNW (300°)19.6 mph25.3 mphHaze
8:29 AM0.5 °F-4.9 °F78 %29.84 in5.0 miNW (310°)16.1 mph25.3 mphHaze
8:50 AM0.3 °F-5.1 °F78 %29.85 in5.0 miWNW (300°)17.3 mph24.2 mphHaze
9:15 AM0.0 °F-5.8 °F77 %29.87 in4.0 miNW (310°)21.9 mph28.8 mphHaze
9:30 AM0.5 °F-5.3 °F77 %29.88 in5.0 miNW (310°)18.4 mphHaze
9:50 AM0.7 °F-5.1 °F77 %29.89 in4.0 miWNW (300°)16.1 mphHaze
10:09 AM1.2 °F-4.9 °F75 %29.89 in4.0 miNW (310°)21.9 mph26.5 mphHaze
10:30 AM1.4 °F-5.1 °F74 %29.90 in4.0 miNW (310°)21.9 mph29.9 mphHaze
10:50 AM1.4 °F-5.3 °F74 %29.91 in3.0 miNW (310°)21.9 mph29.9 mphHaze
11:10 AM1.4 °F-5.1 °F74 %29.92 in3.0 miNW (310°)21.9 mphHaze
11:30 AM1.8 °F-4.9 °F74 %29.93 in4.0 miWNW (300°)18.4 mph24.2 mphHaze
11:49 AM2.1 °F-4.9 °F72 %29.93 in4.0 miWNW (300°)21.9 mph26.5 mphHaze
12:10 PM2.1 °F-4.5 °F74 %29.94 in4.0 miWNW (300°)20.7 mph25.3 mphHaze
12:30 PM2.3 °F-4.9 °F72 %29.94 in4.0 miNW (310°)16.1 mph21.9 mphHaze
12:49 PM2.1 °F-4.9 °F72 %29.96 in3.0 miWNW (300°)21.9 mph28.8 mphHaze
1:10 PM1.9 °F-4.7 °F74 %29.96 in4.0 miWNW (300°)20.7 mph28.8 mphHaze
1:29 PM2.8 °F-4.2 °F73 %29.96 in5.0 miWNW (300°)19.6 mphHaze
1:50 PM1.9 °F-5.3 °F72 %29.97 in3.0 miWNW (300°)23.0 mphHaze
2:09 PM1.4 °F-5.3 °F74 %29.98 in3.0 miWNW (290°)24.2 mph28.8 mphHaze
2:30 PM1.8 °F-5.3 °F72 %29.98 in4.0 miWNW (300°)24.2 mphHaze
2:50 PM1.6 °F-5.1 °F74 %29.99 in3.0 miWNW (300°)20.7 mph27.6 mphHaze
3:10 PM1.0 °F-5.1 °F75 %30.00 in3.0 miWNW (300°)19.6 mph27.6 mphHaze
3:29 PM1.0 °F-5.1 °F75 %30.01 in2.0 miWNW (300°)23.0 mph27.6 mphHaze
3:50 PM0.9 °F-5.3 °F75 %30.02 in3.0 miWNW (300°)20.7 mph27.6 mphHaze
4:10 PM0.5 °F-6.2 °F74 %30.03 in4.0 miWNW (300°)23.0 mph28.8 mphHaze
4:30 PM0.5 °F-5.8 °F75 %30.04 in7.0 miWNW (300°)19.6 mph28.8 mphOvercast
4:49 PM0.1 °F-5.8 °F76 %30.04 in3.0 miWNW (300°)21.9 mph27.6 mphHaze
5:10 PM-0.6 °F-6.5 °F76 %30.05 in3.0 miWNW (300°)21.9 mph27.6 mphHaze
5:30 PM-0.9 °F-6.3 °F78 %30.07 in5.0 miWNW (300°)21.9 mph25.3 mphHaze
5:50 PM-1.3 °F-6.7 °F78 %30.07 in5.0 miWNW (300°)19.6 mph25.3 mphHaze
6:09 PM-1.5 °F-6.7 °F78 %30.08 in5.0 miNW (310°)20.7 mph25.3 mphHaze
6:30 PM-2.2 °F-7.6 °F78 %30.09 in5.0 miWNW (300°)20.7 mph26.5 mphHaze
6:50 PM-2.7 °F-8.5 °F76 %30.10 in5.0 miWNW (300°)20.7 mph28.8 mphHaze
7:10 PM-3.1 °F-8.7 °F77 %30.11 in10.0 miNW (310°)18.4 mphClear
7:30 PM-3.5 °F-9.4 °F76 %30.12 in10.0 miNW (310°)20.7 mph26.5 mphClear
7:49 PM-3.6 °F-9.4 °F76 %30.12 in10.0 miNW (310°)19.6 mph26.5 mphClear
8:09 PM-4.0 °F-9.6 °F77 %30.12 in10.0 miNW (310°)21.9 mph27.6 mphClear
8:29 PM-4.4 °F-9.9 °F77 %30.13 in10.0 miNW (310°)18.4 mphClear
8:50 PM-4.7 °F-10.3 °F77 %30.15 in10.0 miWNW (300°)17.3 mph23.0 mphClear
9:09 PM-5.1 °F-10.7 °F77 %30.15 in10.0 miWNW (300°)18.4 mphClear
9:30 PM-5.4 °F-11.2 °F76 %30.16 in10.0 miNW (310°)16.1 mph23.0 mphClear
9:50 PM-5.8 °F-11.4 °F77 %30.17 in10.0 miWNW (300°)17.3 mph23.0 mphClear
10:09 PM-6.2 °F-11.7 °F77 %30.17 in10.0 miWNW (300°)16.1 mphClear
10:30 PM-6.5 °F-12.3 °F76 %30.17 in10.0 miWNW (300°)17.3 mphClear
10:50 PM-6.9 °F-12.6 °F76 %30.17 in10.0 miWNW (300°)18.4 mph24.2 mphClear
11:10 PM-7.1 °F-13.0 °F75 %30.17 in10.0 miNW (310°)16.1 mphClear
11:30 PM-7.2 °F-13.2 °F75 %30.19 in10.0 miWNW (300°)19.6 mphClear
11:49 PM-7.6 °F-13.5 °F75 %30.19 in10.0 miWNW (300°)17.3 mphClear
Hourly data recorded from KFKA, located miles away from Harmony, Minnesota







STORIES FROM OUR PARTNERS